TimeEST,TemperatureF,Dew PointF,Humidity,Sea Level PressureIn,VisibilityMPH,Wind Direction,Wind SpeedMPH,Gust SpeedMPH,PrecipitationIn,Events,Conditions,WindDirDegrees,DateUTC
12:15 AM,35.6,21.2,56,30.13,10.0,West,13.8,23.0,N/A,,Clear,280,2013-01-05 05:15:00
12:35 AM,35.6,21.2,56,30.13,10.0,West,16.1,21.9,N/A,,Clear,280,2013-01-05 05:35:00
12:55 AM,35.6,21.2,56,30.13,10.0,West,13.8,20.7,N/A,,Clear,270,2013-01-05 05:55:00
1:15 AM,35.6,21.2,56,30.13,10.0,West,12.7,19.6,N/A,,Clear,270,2013-01-05 06:15:00
1:35 AM,35.6,21.2,56,30.13,10.0,West,12.7,19.6,N/A,,Clear,280,2013-01-05 06:35:00
1:55 AM,35.6,21.2,56,30.13,10.0,West,11.5,19.6,N/A,,Clear,280,2013-01-05 06:55:00
2:15 AM,35.6,21.2,56,30.14,10.0,West,12.7,19.6,N/A,,Clear,270,2013-01-05 07:15:00
2:35 AM,35.6,21.2,56,30.15,10.0,West,12.7,17.3,N/A,,Clear,270,2013-01-05 07:35:00
2:55 AM,35.6,23.0,60,30.15,10.0,West,11.5,18.4,N/A,,Clear,270,2013-01-05 07:55:00
3:15 AM,35.6,23.0,60,30.16,10.0,West,12.7,19.6,N/A,,Clear,280,2013-01-05 08:15:00
3:35 AM,35.6,23.0,60,30.18,10.0,West,13.8,20.7,N/A,,Clear,280,2013-01-05 08:35:00
3:55 AM,35.6,21.2,56,30.19,10.0,West,15.0,19.6,N/A,,Clear,270,2013-01-05 08:55:00
4:15 AM,35.6,23.0,60,30.19,10.0,West,16.1,19.6,N/A,,Clear,280,2013-01-05 09:15:00
4:35 AM,37.4,21.2,52,30.21,10.0,West,13.8,21.9,N/A,,Clear,270,2013-01-05 09:35:00
4:55 AM,35.6,21.2,56,30.21,10.0,West,12.7,-,N/A,,Clear,280,2013-01-05 09:55:00
5:15 AM,35.6,21.2,56,30.22,10.0,West,10.4,17.3,N/A,,Clear,270,2013-01-05 10:15:00
5:35 AM,35.6,21.2,56,30.23,10.0,West,11.5,-,N/A,,Clear,270,2013-01-05 10:35:00
5:55 AM,35.6,21.2,56,30.25,10.0,West,12.7,17.3,N/A,,Clear,270,2013-01-05 10:55:00
6:15 AM,35.6,21.2,56,30.26,10.0,West,10.4,-,N/A,,Clear,280,2013-01-05 11:15:00
6:35 AM,35.6,21.2,56,30.27,10.0,WNW,11.5,16.1,N/A,,Clear,290,2013-01-05 11:35:00
6:55 AM,35.6,21.2,56,30.29,10.0,WNW,9.2,-,N/A,,Clear,290,2013-01-05 11:55:00
7:15 AM,35.6,21.2,56,30.30,10.0,WNW,8.1,18.4,N/A,,Clear,300,2013-01-05 12:15:00
7:35 AM,35.6,19.4,52,30.31,10.0,WNW,8.1,16.1,N/A,,Clear,300,2013-01-05 12:35:00
7:55 AM,35.6,21.2,56,30.32,10.0,WNW,6.9,-,N/A,,Clear,300,2013-01-05 12:55:00
8:15 AM,35.6,21.2,56,30.33,10.0,NW,8.1,-,N/A,,Clear,320,2013-01-05 13:15:00
8:35 AM,35.6,21.2,56,30.33,10.0,NW,8.1,-,N/A,,Clear,320,2013-01-05 13:35:00
8:55 AM,35.6,19.4,52,30.34,10.0,NW,9.2,-,N/A,,Clear,320,2013-01-05 13:55:00
9:15 AM,35.6,19.4,52,30.35,10.0,NW,8.1,17.3,N/A,,Clear,320,2013-01-05 14:15:00
9:35 AM,35.6,21.2,56,30.36,10.0,NNW,11.5,17.3,N/A,,Clear,330,2013-01-05 14:35:00
9:55 AM,35.6,19.4,52,30.37,10.0,NNW,8.1,-,N/A,,Clear,340,2013-01-05 14:55:00
10:15 AM,35.6,19.4,52,30.38,10.0,NW,9.2,-,N/A,,Clear,320,2013-01-05 15:15:00
10:55 AM,37.4,19.4,48,30.36,10.0,NNW,10.4,19.6,N/A,,Clear,330,2013-01-05 15:55:00
11:15 AM,37.4,19.4,48,30.36,10.0,NW,10.4,17.3,N/A,,Clear,320,2013-01-05 16:15:00
11:55 AM,37.4,21.2,52,30.34,10.0,WNW,9.2,16.1,N/A,,Clear,290,2013-01-05 16:55:00
12:15 PM,37.4,21.2,52,30.33,10.0,WNW,10.4,16.1,N/A,,Clear,290,2013-01-05 17:15:00
12:55 PM,37.4,21.2,52,30.31,10.0,WNW,10.4,16.1,N/A,,Clear,290,2013-01-05 17:55:00
1:15 PM,37.4,21.2,52,30.31,10.0,WNW,12.7,-,N/A,,Clear,290,2013-01-05 18:15:00
1:35 PM,37.4,21.2,52,30.30,10.0,West,12.7,17.3,N/A,,Clear,270,2013-01-05 18:35:00
1:55 PM,37.4,21.2,52,30.31,10.0,West,15.0,-,N/A,,Clear,280,2013-01-05 18:55:00
2:15 PM,37.4,23.0,56,30.30,10.0,WNW,9.2,-,N/A,,Clear,290,2013-01-05 19:15:00
2:35 PM,37.4,21.2,52,30.31,10.0,WNW,9.2,-,N/A,,Clear,290,2013-01-05 19:35:00
2:55 PM,37.4,21.2,52,30.30,10.0,WNW,8.1,-,N/A,,Clear,290,2013-01-05 19:55:00
3:15 PM,37.4,21.2,52,30.31,10.0,West,10.4,-,N/A,,Clear,280,2013-01-05 20:15:00
3:35 PM,37.4,21.2,52,30.31,10.0,West,8.1,-,N/A,,Clear,280,2013-01-05 20:35:00
3:55 PM,37.4,21.2,52,30.30,-9999.0,West,4.6,-,N/A,,Clear,280,2013-01-05 20:55:00
4:15 PM,37.4,21.2,52,30.31,-9999.0,West,4.6,-,N/A,,Clear,270,2013-01-05 21:15:00
4:35 PM,37.4,21.2,52,30.31,-9999.0,NW,3.5,-,N/A,,Clear,310,2013-01-05 21:35:00
4:55 PM,35.6,21.2,56,30.31,-9999.0,Calm,Calm,-,N/A,,Clear,0,2013-01-05 21:55:00
5:15 PM,35.6,21.2,56,30.31,-9999.0,Calm,Calm,-,N/A,,Clear,0,2013-01-05 22:15:00
5:55 PM,30.2,19.4,64,30.31,-9999.0,Calm,Calm,-,N/A,,Clear,0,2013-01-05 22:55:00
6:15 PM,30.2,21.2,69,30.31,-9999.0,Calm,Calm,-,N/A,,Clear,0,2013-01-05 23:15:00
6:35 PM,30.2,21.2,69,30.33,-9999.0,Calm,Calm,-,N/A,,Clear,0,2013-01-05 23:35:00
6:55 PM,28.4,21.2,74,30.31,-9999.0,Calm,Calm,-,N/A,,Clear,0,2013-01-05 23:55:00
7:15 PM,30.2,21.2,69,30.31,-9999.0,Calm,Calm,-,N/A,,Clear,0,2013-01-06 00:15:00
7:35 PM,28.4,21.2,74,30.30,-9999.0,Calm,Calm,-,N/A,,Clear,0,2013-01-06 00:35:00
7:55 PM,30.2,21.2,69,30.29,-9999.0,Calm,Calm,-,N/A,,Clear,0,2013-01-06 00:55:00
8:15 PM,30.2,23.0,75,30.30,-9999.0,Calm,Calm,-,N/A,,Clear,0,2013-01-06 01:15:00
8:35 PM,30.2,23.0,75,30.29,-9999.0,Calm,Calm,-,N/A,,Clear,0,2013-01-06 01:35:00
8:55 PM,30.2,24.8,80,30.28,-9999.0,Calm,Calm,-,N/A,,Clear,0,2013-01-06 01:55:00
9:15 PM,30.2,24.8,80,30.28,-9999.0,Calm,Calm,-,N/A,,Clear,0,2013-01-06 02:15:00
9:35 PM,30.2,24.8,80,30.28,-9999.0,Calm,Calm,-,N/A,,Clear,0,2013-01-06 02:35:00
9:55 PM,32.0,24.8,75,30.29,-9999.0,South,4.6,-,N/A,,Clear,180,2013-01-06 02:55:00
10:15 PM,33.8,26.6,75,30.27,-9999.0,South,4.6,-,N/A,,Clear,170,2013-01-06 03:15:00
10:35 PM,35.6,28.4,75,30.26,-9999.0,SSE,3.5,-,N/A,,Clear,160,2013-01-06 03:35:00
10:55 PM,35.6,28.4,75,30.26,-9999.0,South,3.5,-,N/A,,Clear,180,2013-01-06 03:55:00
11:15 PM,35.6,30.2,81,30.26,-9999.0,South,4.6,-,N/A,,Mostly Cloudy,180,2013-01-06 04:15:00
11:35 PM,37.4,30.2,75,30.27,10.0,South,3.5,-,N/A,,Overcast,190,2013-01-06 04:35:00
11:55 PM,37.4,30.2,75,30.27,10.0,SSW,5.8,-,N/A,,Mostly Cloudy,200,2013-01-06 04:55:00